Regional Weather Roundup
Issued by NWS

Home | Current Version | Previous Version | Graphics & Text | Print | Product List | Glossary On
Versions: 1 2 3 4 5 6 7 8 9 10 11 12 13 14 15 16 17 18 19 20 21 22 23 24 25 26 27 28 29 30 31 32 33 34 35 36 37 38 39 40 41 42 43 44 45 46 47 48 49 50
000
ASUS43 KDMX 210001
RWRIA

WEATHER ROUNDUP FOR IOWA
NATIONAL WEATHER SERVICE DES MOINES IA
600 PM CST FRI JAN 20 2017

NOTE: "FAIR" INDICATES FEW OR NO CLOUDS BELOW 12,000 FEET WITH NO
SIGNIFICANT WEATHER AND/OR OBSTRUCTIONS TO VISIBILITY.

* - THESE STATIONS ARE NOT NWS STATIONS...THUS NOT UNDER NWS
QUALITY CONTROL.  THEY ALSO DO NOT REPORT WEATHER SUCH
AS PRECIPITATION OR FOG.

IAZ001>003-012>014-020>022-031>034-043>046-210100-
   NORTHWEST IOWA

CITY           SKY/WX    TMP DP  RH WIND       PRES   REMARKS
CARROLL *      FOG       37  37 100 SE6       29.50R VSB<1/4 WCI  33
CHEROKEE *     CLOUDY    38  38 100 S3        29.48R
DENISON *      CLOUDY    39  39 100 E7        29.46R WCI  34
LE MARS *      CLOUDY    39  39 100 SE9       29.47S FOG     WCI  33
ORANGE CITY *  DRIZZLE   37  37 100 SE5       29.47R WCI  34
SHELDON *      CLOUDY    37  37 100 SE10      29.46R WCI  30
SIOUX CITY     FOG       41  40  96 SE7       29.46R VSB 3/4
6HR MIN TEMP:  41; 6HR MAX TEMP:  43;

SPENCER        CLOUDY    37  36  96 SE8       29.49R FOG     WCI  31
6HR MIN TEMP:  37; 6HR MAX TEMP:  39;

STORM LAKE *   FOG       36  36 100 E7        29.48S VSB<1/4 WCI  30
$$

IAZ055>058-069>071-079>083-090>094-210100-
   SOUTHWEST IOWA

CITY           SKY/WX    TMP DP  RH WIND       PRES   REMARKS
ATLANTIC *     CLOUDY    41  41 100 CALM      29.48R
AUDUBON *      FOG       39  37  93 CALM      29.49S VSB 1
CLARINDA *     CLOUDY    43  43 100 VRB6      29.48S FOG
COUNCIL BLFS * CLOUDY    41  41 100 E7        29.45S FOG
CRESTON *      MIX PCPN  41  41 100 E10       29.49S VSB 1/4
HARLAN  *      CLOUDY    39  39 100 SE6       29.51R WCI  35
LAMONI         FOG       43  43 100 E6        29.47F VSB 1/2
6HR MIN TEMP:  42; 6HR MAX TEMP:  43; 6HR PCP: TRACE;

RED OAK *      CLOUDY    43  43 100 VRB3      29.47R
SHENANDOAH *   CLOUDY    43  43 100 E8        29.46S
$$

IAZ047>049-059>061-072>074-084-210100-
   CENTRAL IOWA

CITY           SKY/WX    TMP DP  RH WIND       PRES   REMARKS
AMES           FOG       38  38 100 SE6       29.52S VSB 1/2 WCI  33
6HR MIN TEMP:  38; 6HR MAX TEMP:  40;

ANKENY *       CLOUDY    39  39 100 E5        29.54S FOG
BOONE *        FOG       37  37 100 SE8       29.50F VSB<1/4 WCI  31
CHARITON *     MIX PCPN  41  41 100 E9        29.51S VSB<1/4
DES MOINES     CLOUDY    40  39  97 E9        29.52S FOG     WCI  34
6HR MIN TEMP:  40; 6HR MAX TEMP:  43;

GRINNELL*      FOG       38  37  99 E6        29.55R VSB 1/4 WCI  33
KNOXVILLE *    FOG       41  41 100 E7        29.51S VSB<1/4
MARSHALLTOWN   CLOUDY    38  38 100 SE6       29.53S FOG     WCI  33
6HR MIN TEMP:  37; 6HR MAX TEMP:  39;

NEWTON *       FOG       39  39 100 E8        29.53S VSB 1/4 WCI  34
PELLA *        FOG       40  40  99 E5        29.54S VSB 1/4
PERRY *        CLOUDY    40  39  99 E8        29.51R FOG     WCI  34
$$

IAZ004>006-015-016-023>025-035-036-210100-
   NORTH CENTRAL IOWA

CITY           SKY/WX    TMP DP  RH WIND       PRES   REMARKS
ALGONA *       FOG       36  36 100 SE9       29.52R VSB 1/4 WCI  29
CLARION *      FOG       36  36 100 SE8       29.53R VSB 1/4 WCI  29
ESTHERVILLE    FOG       34  34 100 SE8       29.49R VSB 1/2 WCI  27
6HR MIN TEMP:  34; 6HR MAX TEMP:  36;

FORT DODGE *   CLOUDY    37  36  93 CALM      29.52R VSB 3/4
MASON CITY     FOG       34  34 100 E8        29.55R VSB 1/4 WCI  27
6HR MIN TEMP:  34; 6HR MAX TEMP:  34;

FOREST CITY *  FOG       34  34 100 SE8       29.53R VSB 1/2 WCI  27
WEBSTER CITY * FOG       37 N/A N/A SE8       29.51R VSB<1/4 WCI  31
IOWA FALLS *   FOG       37  36  97 E3        29.54R VSB 1/4
$$

IAZ007>011-017>019-026>030-037>042-050>054-066-210100-
   NORTHEAST IOWA

CITY           SKY/WX    TMP DP  RH WIND       PRES   REMARKS
CEDAR RAPIDS   FOG       39  39 100 SE6       29.57R VSB 1/4 WCI  35
6HR MIN TEMP:  38; 6HR MAX TEMP:  40;

CHARLES CITY * FOG       34  34 100 E9        29.56R VSB<1/4 WCI  26
CLINTON *      LGT RAIN  39  39 100 E8        29.60R VSB 1/4 WCI  33
DECORAH *      FOG       36  36 100 SE6       29.57R VSB 1   WCI  31
DUBUQUE        FOG       37  37 100 E5        29.59R VSB 1/4 WCI  33
6HR MIN TEMP:  37; 6HR MAX TEMP:  38;

MONTICELLO *   FOG       39  39 100 E6        29.58R VSB<1/4 WCI  35
OELWEIN *      FOG       36  36 100 E9        29.57R VSB<1/4 WCI  29
WATERLOO       FOG       37  36  96 E6        29.56R VSB 1/4 WCI  32
6HR MIN TEMP:  37; 6HR MAX TEMP:  39;

$$

IAZ064-065-067-068-078-210100-
   EAST CENTRAL IOWA

CITY           SKY/WX    TMP DP  RH WIND       PRES   REMARKS
DAVENPORT      CLOUDY    42  41  96 E6        29.59R FOG
6HR MIN TEMP:  41; 6HR MAX TEMP:  44;

IOWA CITY      CLOUDY    42  41  96 E3        29.59R FOG
6HR MIN TEMP:  40; 6HR MAX TEMP:  43;

MUSCATINE *    CLOUDY    45  43  93 E5        29.59R FOG
QUAD CITIES    CLOUDY    44  41  89 E6        29.59R FOG
6HR MIN TEMP:  42; 6HR MAX TEMP:  46;

$$

IAZ062-063-075>077-085>089-095>099-210100-
   SOUTHEAST IOWA

CITY           SKY/WX    TMP DP  RH WIND       PRES   REMARKS
BURLINGTON     FOG       44  44 100 SE6       29.56R VSB 1/2
6HR MIN TEMP:  41; 6HR MAX TEMP:  44;

FAIRFIELD *    CLOUDY    43  43 100 E6        29.55R FOG
FORT MADISON * FOG       45  43  93 E6        29.57R VSB 1/4
KEOKUK *       CLOUDY    46 N/A N/A E8        29.55S FOG
OSKALOOSA *    FOG       40  40  99 SE7       29.55R VSB 1/4
OTTUMWA        FOG       42  41  96 E6        29.54R VSB 1/4
6HR MIN TEMP:  40; 6HR MAX TEMP:  43;

WASHINGTON *   CLOUDY    41  41 100 E8        29.57S FOG
$$

ABBREVIATIONS USED IN REMARKS
   TC - TEMPERATURES IN CELSIUS
  WCI - WIND CHILL INDEX
   HX - HEAT INDEX
  VSB - VISIBILITY
$$




USA.gov is the U.S. government's official web portal to all federal, state and local government web resources and services.